Volver al catálogo

STARLINK-36699

ActivoComunicacionesSSO
NORAD 67652·PAYLOAD·🇺🇸 United States

Lanzado Feb 2, 2026 desde Vandenberg Space Force Base

Loading…

Próximos Pases (próximas 24 horas)

TLE

ActualizadoSource: CelesTrak SupGP

Época: Sep 14, 2026, 14:16 UTC

1 67652C 26022E   26257.59493056  .00009726  00000+0  30208-3 0  2577
2 67652  97.2850 289.2789 0001405  97.4597 303.6317 15.33415386    18

Sigue STARLINK-36699 en tiempo real con AllMySat

Download on the App Store